Date String (YYYY-MM-DD hh:mm:ss) UTC,Instrument flags,absolute air pressure of the measurement (hPa),sample flow rate (lpm),inlet stack bypass flow (lpm),air temperature of the measurement (°C),ambient temperature measured by the external sensor (°C),aerosol sample conditioner tube jacket temperature (°C),OPC LED temperature (°C),internal box temperature (°C),relative humidity of the measurement (%),span deviation,mass concentration of particles derived from Lorenz-Mie calculation of OPC scattering (μg/m³),mass concentration of particles derived from Lorenz-Mie calculation of OPC scattering (μg/m³),mass concentration of particles derived from Lorenz-Mie calculation of OPC scattering (μg/m³)
DateTimeUTC,F1_M11,P_M11,Q1_M11,Q2_M11,T1_M11,T2_M11,T3_M11,T4_M11,T5_M11,U1_M11,ZSPAN_M11,X0_M11,X2_M11,X1_M11
2023-06-20 09:00:00,SystemResetWarning,0826.2,5.00,000.00,029.8,026.1,000.0,038.4,031.1,14.7,0000.0,0009.16,0004.02,0003.33
2023-06-20 09:01:00,SystemResetWarning,0826.2,5.00,000.00,029.8,026.5,000.0,038.4,031.1,14.7,0000.0,0008.98,0004.01,0003.32
2023-06-20 09:02:00,SystemResetWarning,0826.2,5.01,000.00,029.7,026.8,000.0,038.4,031.1,14.9,0000.0,0009.05,0003.97,0003.30
2023-06-20 09:03:00,SystemResetWarning,0826.2,5.00,000.00,029.7,027.1,000.0,038.4,031.1,14.7,0000.0,0009.15,0003.93,0003.29
2023-06-20 09:04:00,SystemResetWarning,0826.2,5.00,000.00,029.7,027.3,000.0,038.3,031.2,13.9,0000.0,0009.08,0003.91,0003.30
2023-06-20 09:05:00,SystemResetWarning,0826.2,5.00,000.00,029.7,027.5,000.0,038.3,031.2,13.8,0000.0,0009.35,0003.90,0003.31
2023-06-20 09:06:00,SystemResetWarning,0826.2,5.00,000.00,029.7,027.7,000.0,038.3,031.2,13.8,0000.0,0009.63,0003.93,0003.33
2023-06-20 09:07:00,SystemResetWarning,0826.2,5.00,000.00,029.8,027.8,000.0,038.3,031.2,13.9,0000.0,0009.60,0003.91,0003.33
2023-06-20 09:08:00,SystemResetWarning,0826.2,5.00,000.00,029.8,027.9,000.0,038.3,031.3,13.8,0000.0,0009.51,0003.87,0003.31
2023-06-20 09:09:00,SystemResetWarning,0826.2,5.00,000.00,029.8,028.0,000.0,038.3,031.3,14.4,0000.0,0008.95,0003.85,0003.31
2023-06-20 09:10:00,SystemResetWarning,0826.2,5.00,000.00,029.8,028.1,000.0,038.3,031.3,14.6,0000.0,0008.78,0003.82,0003.30
2023-06-20 09:11:00,SystemResetWarning,0826.2,5.00,000.00,029.8,028.2,000.0,038.3,031.4,14.4,0000.0,0009.56,0003.83,0003.29
2023-06-20 09:12:00,SystemResetWarning,0826.2,5.00,000.00,029.8,028.2,000.0,038.4,031.4,14.1,0000.0,0009.98,0003.86,0003.30
2023-06-20 09:13:00,SystemResetWarning,0826.2,5.00,000.00,029.9,028.3,000.0,038.4,031.4,14.3,0000.0,0009.90,0003.88,0003.30
2023-06-20 09:14:00,SystemResetWarning,0826.2,5.00,000.00,029.9,028.3,000.0,038.4,031.4,13.8,0000.0,0009.78,0003.90,0003.31
2023-06-20 09:15:00,SystemResetWarning,0826.3,4.99,000.00,029.9,028.4,000.0,038.4,031.4,13.7,0000.0,0010.02,0003.93,0003.31
2023-06-20 09:16:00,SystemResetWarning,0826.2,5.00,000.00,029.9,028.4,000.0,038.4,031.5,13.8,0000.0,0009.94,0003.92,0003.29
2023-06-20 09:17:00,SystemResetWarning,0826.2,5.00,000.00,030.0,028.4,000.0,038.4,031.5,12.6,0000.0,0010.41,0003.89,0003.28
2023-06-20 09:18:00,SystemResetWarning,0826.2,5.00,000.00,030.0,028.5,000.0,038.4,031.5,13.3,0000.0,0010.34,0003.87,0003.28
2023-06-20 09:19:00,SystemResetWarning,0826.3,5.00,000.00,030.0,028.5,000.0,038.5,031.5,13.2,0000.0,0010.05,0003.84,0003.24
2023-06-20 09:20:00,SystemResetWarning,0826.3,5.00,000.00,030.0,028.5,000.0,038.5,031.5,12.6,0000.0,0010.12,0003.78,0003.20
2023-06-20 09:21:00,SystemResetWarning,0826.3,5.00,000.00,030.0,028.6,000.0,038.5,031.6,12.2,0000.0,0009.78,0003.72,0003.16
2023-06-20 09:22:00,SystemResetWarning,0826.3,5.00,000.00,030.1,028.6,000.0,038.5,031.6,12.1,0000.0,0008.65,0003.61,0003.13
2023-06-20 09:23:00,SystemResetWarning,0826.3,5.00,000.00,030.1,028.6,000.0,038.5,031.6,12.1,0000.0,0008.31,0003.56,0003.08
2023-06-20 09:24:00,SystemResetWarning,0826.3,5.00,000.00,030.1,028.6,000.0,038.6,031.6,12.2,0000.0,0008.47,0003.49,0003.02
2023-06-20 09:25:00,SystemResetWarning,0826.4,5.00,000.00,030.1,028.7,000.0,038.6,031.7,12.2,0000.0,0009.17,0003.43,0002.95
2023-06-20 09:26:00,SystemResetWarning,0826.4,5.00,000.00,030.2,028.7,000.0,038.6,031.7,12.2,0000.0,0009.11,0003.35,0002.85
2023-06-20 09:27:00,SystemResetWarning,0826.4,4.99,000.00,030.2,027.4,000.0,038.6,031.7,12.3,0000.0,0008.86,0003.32,0002.80
2023-06-20 09:28:00,SystemResetWarning,0826.4,5.00,000.00,030.1,025.1,000.0,038.5,031.6,12.5,0000.0,0008.54,0003.33,0002.77
2023-06-20 09:29:00,SystemResetWarning,0826.4,5.01,000.00,030.1,024.9,000.0,038.5,031.4,12.9,0000.0,0008.50,0003.35,0002.76
2023-06-20 09:30:00,SystemResetWarning,0826.4,5.01,000.00,029.9,025.2,000.0,038.5,031.2,13.2,0000.0,0008.57,0003.39,0002.77
2023-06-20 09:31:00,SystemResetWarning,0826.3,4.99,000.00,029.9,025.6,000.0,038.5,031.1,13.8,0000.0,0008.99,0003.40,0002.82
2023-06-20 09:32:00,SystemResetWarning,0826.3,5.00,000.00,029.8,026.1,000.0,038.4,031.1,14.5,0000.0,0008.97,0003.43,0002.85
2023-06-20 09:33:00,SystemResetWarning,0826.4,5.00,000.00,029.8,026.5,000.0,038.4,031.1,14.8,0000.0,0009.00,0003.48,0002.90
2023-06-20 09:34:00,SystemResetWarning,0826.4,4.99,000.00,029.8,026.8,000.0,038.4,031.1,14.9,0000.0,0009.19,0003.55,0002.99
2023-06-20 09:35:00,SystemResetWarning,0826.4,4.99,000.00,029.8,027.1,000.0,038.4,031.2,15.0,0000.0,0009.18,0003.62,0003.07
2023-06-20 09:36:00,SystemResetWarning,0826.4,5.00,000.00,029.8,027.4,000.0,038.4,031.2,15.8,0000.0,0008.67,0003.71,0003.12
2023-06-20 09:37:00,SystemResetWarning,0826.4,5.00,000.00,029.8,027.6,000.0,038.4,031.3,16.0,0000.0,0008.83,0003.78,0003.17
2023-06-20 09:38:00,SystemResetWarning,0826.4,5.00,000.00,029.8,027.8,000.0,038.4,031.3,16.4,0000.0,0009.66,0003.87,0003.23
2023-06-20 09:39:00,SystemResetWarning,0826.4,5.00,000.00,029.8,027.9,000.0,038.4,031.3,17.0,0000.0,0010.24,0003.98,0003.28
2023-06-20 09:40:00,SystemResetWarning,0826.4,5.00,000.00,029.8,028.0,000.0,038.4,031.3,16.4,0000.0,0010.73,0004.06,0003.34
2023-06-20 09:41:00,SystemResetWarning,0826.4,4.99,000.00,029.8,028.1,000.0,038.4,031.3,15.7,0000.0,0010.93,0004.10,0003.41
2023-06-20 09:42:00,SystemResetWarning,0826.4,4.99,000.00,029.8,028.2,000.0,038.4,031.3,15.6,0000.0,0010.54,0004.14,0003.44
2023-06-20 09:43:00,SystemResetWarning,0826.4,4.99,000.00,029.9,028.2,000.0,038.4,031.4,16.2,0000.0,0010.60,0004.16,0003.47
2023-06-20 09:44:00,SystemResetWarning,0826.3,5.00,000.00,029.9,028.3,000.0,038.4,031.4,15.7,0000.0,0011.39,0004.21,0003.49
2023-06-20 09:45:00,SystemResetWarning,0826.4,5.00,000.00,029.9,028.3,000.0,038.4,031.4,14.7,0000.0,0012.08,0004.23,0003.51
2023-06-20 09:46:00,SystemResetWarning,0826.3,5.01,000.00,029.9,028.4,000.0,038.4,031.5,13.1,0000.0,0012.43,0004.26,0003.52
2023-06-20 09:47:00,SystemResetWarning,0826.4,5.01,000.00,030.0,028.4,000.0,038.5,031.5,12.8,0000.0,0012.40,0004.26,0003.53
2023-06-20 09:48:00,SystemResetWarning,0826.4,5.01,000.00,030.0,028.5,000.0,038.5,031.5,12.7,0000.0,0012.19,0004.25,0003.51
2023-06-20 09:49:00,SystemResetWarning,0826.4,5.00,000.00,030.0,028.5,000.0,038.5,031.6,12.5,0000.0,0011.49,0004.19,0003.48
2023-06-20 09:50:00,SystemResetWarning,0826.4,4.99,000.00,030.0,028.6,000.0,038.5,031.6,12.3,0000.0,0010.84,0004.13,0003.46
2023-06-20 09:51:00,SystemResetWarning,0826.4,4.98,000.00,030.0,028.6,000.0,038.5,031.6,12.4,0000.0,0010.34,0004.08,0003.40
2023-06-20 09:52:00,SystemResetWarning,0826.5,5.01,000.00,030.1,028.6,000.0,038.5,031.6,12.9,0000.0,0010.18,0004.06,0003.35
2023-06-20 09:53:00,SystemResetWarning,0826.6,5.01,000.00,030.1,028.6,000.0,038.6,031.7,13.4,0000.0,0010.03,0004.03,0003.33
2023-06-20 09:54:00,SystemResetWarning,0826.6,5.01,000.00,030.1,028.7,000.0,038.6,031.7,13.4,0000.0,0010.03,0004.06,0003.32
2023-06-20 09:55:00,SystemResetWarning,0826.6,4.99,000.00,030.1,028.7,000.0,038.6,031.7,13.3,0000.0,0009.78,0004.05,0003.31
2023-06-20 09:56:00,SystemResetWarning,0826.6,5.00,000.00,030.2,028.7,000.0,038.6,031.7,13.2,0000.0,0009.92,0004.04,0003.29
2023-06-20 09:57:00,SystemResetWarning,0826.6,4.99,000.00,030.2,028.7,000.0,038.6,031.8,13.0,0000.0,0009.53,0003.99,0003.27
2023-06-20 09:58:00,SystemResetWarning,0826.6,4.99,000.00,030.2,028.8,000.0,038.7,031.8,13.0,0000.0,0009.38,0003.95,0003.25
2023-06-20 09:59:00,SystemResetWarning,0826.6,5.00,000.00,030.2,028.8,000.0,038.7,031.7,12.9,0000.0,0009.73,0003.99,0003.24
